• Join FlightAware (Why Join?)
  • Login
  • US Flag 
01:27AM EDT


 

Airport Tracker/Info


-or-


 

Live Flight TrackerFlight Track Log ✈ N588AC ✈ 11-May-2013 ✈ 19A - KBCB

Flight Track Log - Related Links

Times and Time Zones

All times are in EDT time to prevent confusion due to time zone crossing. See the N588AC flight status page for this flight to view local times or setup timezone preferences in your user account.

Time Position Orientation Groundspeed Altitude Reporting Facility
EDT Latitude Longitude Course Direction KTS MPH feet Rate Location/Type
06:48PM 34.1500 -83.5667 349° North 182 209 2,300  Level Atlanta TRACON
06:50PM 34.2483 -83.5889 349° North 201 231 6,400 1,920 Climbing Atlanta Center
06:51PM 34.3172 -83.5736 10° North 234 269 8,200 1,800 Climbing Atlanta Center
06:52PM 34.3858 -83.5203 33° Northeast 266 306 10,100 1,800 Climbing Atlanta Center
06:53PM 34.4628 -83.4669 30° Northeast 300 345 11,800 1,800 Climbing Atlanta Center
06:54PM 34.5356 -83.4083 34° Northeast 312 359 13,700 1,920 Climbing Atlanta Center
06:55PM 34.6189 -83.3547 21° North 320 368 15,700 1,980 Climbing Atlanta Center
06:56PM 34.6642 -83.2608 60° Northeast 314 361 17,700 1,860 Climbing Atlanta Center
06:57PM 34.7053 -83.1669 62° Northeast 324 373 19,500 1,860 Climbing Atlanta Center
06:58PM 34.7483 -83.0681 62° Northeast 334 384 21,500 1,740 Climbing Atlanta Center
06:59PM 34.8019 -82.9814 53° Northeast 321 369 23,000 900 Climbing Atlanta Center
07:00PM 34.8847 -82.9169 33° Northeast 329 379 23,300 960 Climbing Atlanta Center
07:01PM 34.9781 -82.8525 29° Northeast 340 391 25,000 960 Climbing Atlanta Center
07:02PM 35.0672 -82.7903 30° Northeast 351 404 25,300 360 Climbing Atlanta Center
07:03PM 35.1542 -82.7153 35° Northeast 369 425 25,800 300 Climbing Atlanta Center
07:04PM 35.2469 -82.6297 37° Northeast 383 441 26,000 480 Climbing Atlanta Center
07:05PM 35.3336 -82.5519 36° Northeast 415 478 26,800 1,020 Climbing Atlanta Center
07:06PM 35.4306 -82.4611 37° Northeast 422 486 28,100 1,260 Climbing Atlanta Center
07:07PM 35.5214 -82.3750 38° Northeast 416 479 29,400 1,200 Climbing Atlanta Center
07:08PM 35.6014 -82.2867 42° Northeast 404 465 30,600 900 Climbing Atlanta Center
07:09PM 35.6897 -82.1953 40° Northeast 404 465 31,200 840 Climbing Atlanta Center
07:10PM 35.7781 -82.0933 43° Northeast 415 478 32,300 900 Climbing Atlanta Center
07:11PM 35.8681 -81.9939 42° Northeast 428 493 33,000 300 Climbing Atlanta Center
07:12PM 35.9683 -81.8836 42° Northeast 458 527 33,000 180 Level Atlanta Center
07:13PM 36.0586 -81.7886 40° Northeast 469 540 33,400 300 Climbing Atlanta Center
07:14PM 36.1564 -81.6728 44° Northeast 486 559 33,600 -600 Climbing Atlanta Center
07:15PM 36.2522 -81.5567 44° Northeast 480 552 32,200 -1,260 Descending Atlanta Center
07:16PM 36.3397 -81.4536 43° Northeast 452 520 31,100 -1,200 Descending Atlanta Center
07:17PM 36.4253 -81.3528 43° Northeast 427 491 29,900 -1,500 Descending Atlanta Center
07:18PM 36.5186 -81.2386 44° Northeast 420 483 28,200 -1,740 Descending Atlanta Center
07:19PM 36.6078 -81.1344 43° Northeast 425 489 26,500 -1,740 Descending Atlanta Center
07:20PM 36.6989 -81.0225 45° Northeast 433 498 24,800 -9,780 Descending Atlanta Center
07:21PM 36.7819 -80.9208 44° Northeast 438 504 7,000 -17,820 Descending Atlanta Center
07:23PM 36.8506 -80.8321 58° Northeast  Level FlightAware Approximate
07:30PM 37.2000 -80.4000 39° Northeast  Level FlightAware Approximate
07:31PM 37.2076 -80.4078 39° Northeast  Level Estimated
07:32PM 37.2076 -80.4078 39° Northeast  Level Estimated
07:33PM 37.2076 -80.4078 39° Northeast  Level Estimated
07:34PM 37.2076 -80.4078 39° Northeast  Level Estimated
07:35PM 37.2076 -80.4078 39° Northeast  Level Estimated
07:36PM 37.2076 -80.4078 39° Northeast  Level Estimated
07:37PM 37.2076 -80.4078 39° Northeast  Level Estimated
07:38PM 37.2076 -80.4078 39° Northeast  Level Estimated